Year,Month,Day,Hour,Minute,Value (Times are PST for temperature in C)
2014,02,20,00,00,3.70
2014,02,20,00,01,3.60
2014,02,20,00,02,3.60
2014,02,20,00,03,3.60
2014,02,20,00,04,3.60
2014,02,20,00,05,3.60
2014,02,20,00,06,3.60
2014,02,20,00,07,3.60
2014,02,20,00,08,3.60
2014,02,20,00,09,3.60
2014,02,20,00,10,3.60
2014,02,20,00,11,3.60
2014,02,20,00,12,3.60
2014,02,20,00,13,3.60
2014,02,20,00,14,3.60
2014,02,20,00,15,3.50
2014,02,20,00,16,3.50
2014,02,20,00,17,3.50
2014,02,20,00,18,3.60
2014,02,20,00,19,3.50
2014,02,20,00,20,3.50
2014,02,20,00,21,3.50
2014,02,20,00,22,3.50
2014,02,20,00,23,3.50
2014,02,20,00,24,3.60
2014,02,20,00,25,3.60
2014,02,20,00,26,3.60
2014,02,20,00,27,3.60
2014,02,20,00,28,3.60
2014,02,20,00,29,3.60
2014,02,20,00,30,3.60
2014,02,20,00,31,3.60
2014,02,20,00,32,3.60
2014,02,20,00,33,3.60
2014,02,20,00,34,3.60
2014,02,20,00,35,3.60
2014,02,20,00,36,3.60
2014,02,20,00,37,3.60
2014,02,20,00,38,3.60
2014,02,20,00,39,3.60
2014,02,20,00,40,3.60
2014,02,20,00,41,3.60
2014,02,20,00,42,3.60
2014,02,20,00,43,3.60
2014,02,20,00,44,3.60
2014,02,20,00,45,3.60
2014,02,20,00,46,3.60
2014,02,20,00,47,3.60
2014,02,20,00,48,3.60
2014,02,20,00,49,3.60
2014,02,20,00,50,3.70
2014,02,20,00,51,3.70
2014,02,20,00,52,3.60
2014,02,20,00,53,3.60
2014,02,20,00,54,3.60
2014,02,20,00,55,3.60
2014,02,20,00,56,3.60
2014,02,20,00,57,3.60
2014,02,20,00,58,3.60
2014,02,20,00,59,3.60
2014,02,20,01,00,3.60
2014,02,20,01,01,3.60
2014,02,20,01,02,3.60
2014,02,20,01,03,3.60
2014,02,20,01,04,3.60
2014,02,20,01,05,3.60
2014,02,20,01,06,3.60
2014,02,20,01,07,3.60
2014,02,20,01,08,3.50
2014,02,20,01,09,3.50
2014,02,20,01,10,3.50
2014,02,20,01,11,3.50
2014,02,20,01,12,3.50
2014,02,20,01,13,3.40
2014,02,20,01,14,3.40
2014,02,20,01,15,3.40
2014,02,20,01,16,3.40
2014,02,20,01,17,3.40
2014,02,20,01,18,3.40
2014,02,20,01,19,3.30
2014,02,20,01,20,3.30
2014,02,20,01,21,3.30
2014,02,20,01,22,3.30
2014,02,20,01,23,3.30
2014,02,20,01,24,3.30
2014,02,20,01,25,3.30
2014,02,20,01,26,3.30
2014,02,20,01,27,3.30
2014,02,20,01,28,3.30
2014,02,20,01,29,3.30
2014,02,20,01,30,3.30
2014,02,20,01,31,3.30
2014,02,20,01,32,3.30
2014,02,20,01,33,3.20
2014,02,20,01,34,3.20
2014,02,20,01,35,3.20
2014,02,20,01,36,3.20
2014,02,20,01,37,3.20
2014,02,20,01,38,3.20
2014,02,20,01,39,3.20
2014,02,20,01,40,3.10
2014,02,20,01,41,3.10
2014,02,20,01,42,3.10
2014,02,20,01,43,3.10
2014,02,20,01,44,3.10
2014,02,20,01,45,3.00
2014,02,20,01,46,3.00
2014,02,20,01,47,3.00
2014,02,20,01,48,3.00
2014,02,20,01,49,3.00
2014,02,20,01,50,2.90
2014,02,20,01,51,2.90
2014,02,20,01,52,2.90
2014,02,20,01,53,2.90
2014,02,20,01,54,2.90
2014,02,20,01,55,2.90
2014,02,20,01,56,2.90
2014,02,20,01,57,2.90
2014,02,20,01,58,2.90
2014,02,20,01,59,2.90
2014,02,20,02,00,2.80
2014,02,20,02,01,2.80
2014,02,20,02,02,2.80
2014,02,20,02,03,2.80
2014,02,20,02,04,2.80
2014,02,20,02,05,2.80
2014,02,20,02,06,2.80
2014,02,20,02,07,2.80
2014,02,20,02,08,2.80
2014,02,20,02,09,2.80
2014,02,20,02,10,2.70
2014,02,20,02,11,2.70
2014,02,20,02,12,2.70
2014,02,20,02,13,2.70
2014,02,20,02,14,2.70
2014,02,20,02,15,2.70
2014,02,20,02,16,2.70
2014,02,20,02,17,2.70
2014,02,20,02,18,2.70
2014,02,20,02,19,2.70
2014,02,20,02,20,2.70
2014,02,20,02,21,2.70
2014,02,20,02,22,2.70
2014,02,20,02,23,2.70
2014,02,20,02,24,2.70
2014,02,20,02,25,2.80
2014,02,20,02,26,2.80
2014,02,20,02,27,2.80
2014,02,20,02,28,2.80
2014,02,20,02,29,2.80
2014,02,20,02,30,2.80
2014,02,20,02,31,2.80
2014,02,20,02,32,2.80
2014,02,20,02,33,2.80
2014,02,20,02,34,2.80
2014,02,20,02,35,2.80
2014,02,20,02,36,2.80
2014,02,20,02,37,2.80
2014,02,20,02,38,2.80
2014,02,20,02,39,2.80
2014,02,20,02,40,2.80
2014,02,20,02,41,2.90
2014,02,20,02,42,2.90
2014,02,20,02,43,2.90
2014,02,20,02,44,2.90
2014,02,20,02,45,2.90
2014,02,20,02,46,2.90
2014,02,20,02,47,2.90
2014,02,20,02,48,2.90
2014,02,20,02,49,2.90
2014,02,20,02,50,2.90
2014,02,20,02,51,2.90
2014,02,20,02,52,2.90
2014,02,20,02,53,2.90
2014,02,20,02,54,2.90
2014,02,20,02,55,2.90
2014,02,20,02,56,2.90
2014,02,20,02,57,2.90
2014,02,20,02,58,2.90
2014,02,20,02,59,2.90
2014,02,20,03,00,2.90
2014,02,20,03,01,2.90
2014,02,20,03,02,2.90
2014,02,20,03,03,2.90
2014,02,20,03,04,2.90
2014,02,20,03,05,2.90
2014,02,20,03,06,2.90
2014,02,20,03,07,2.90
2014,02,20,03,08,2.90
2014,02,20,03,09,2.90
2014,02,20,03,10,2.90
2014,02,20,03,11,2.90
2014,02,20,03,12,2.90
2014,02,20,03,13,2.90
2014,02,20,03,14,3.00
2014,02,20,03,15,3.00
2014,02,20,03,16,3.00
2014,02,20,03,17,3.00
2014,02,20,03,18,3.00
2014,02,20,03,19,3.00
2014,02,20,03,20,3.00
2014,02,20,03,21,3.00
2014,02,20,03,22,3.00
2014,02,20,03,23,3.00
2014,02,20,03,24,3.00
2014,02,20,03,25,3.00
2014,02,20,03,26,3.00
2014,02,20,03,27,3.00
2014,02,20,03,28,3.00
2014,02,20,03,29,3.00
2014,02,20,03,30,3.00
2014,02,20,03,31,3.00
2014,02,20,03,32,3.00
2014,02,20,03,33,3.00
2014,02,20,03,34,2.90
2014,02,20,03,35,2.90
2014,02,20,03,36,2.90
2014,02,20,03,37,2.90
2014,02,20,03,38,2.90
2014,02,20,03,39,2.90
2014,02,20,03,40,2.90
2014,02,20,03,41,2.90
2014,02,20,03,42,2.90
2014,02,20,03,43,2.90
2014,02,20,03,44,2.90
2014,02,20,03,45,2.90
2014,02,20,03,46,2.90
2014,02,20,03,47,2.90
2014,02,20,03,48,2.90
2014,02,20,03,49,2.90
2014,02,20,03,50,2.90
2014,02,20,03,51,2.90
2014,02,20,03,52,2.90
2014,02,20,03,53,2.90
2014,02,20,03,54,2.90
2014,02,20,03,55,2.90
2014,02,20,03,56,2.90
2014,02,20,03,57,2.90
2014,02,20,03,58,2.90
2014,02,20,03,59,2.90
2014,02,20,04,00,2.90
2014,02,20,04,01,2.90
2014,02,20,04,02,2.90
2014,02,20,04,03,2.90
2014,02,20,04,04,2.80
2014,02,20,04,05,2.80
2014,02,20,04,06,2.80
2014,02,20,04,07,2.80
2014,02,20,04,08,2.80
2014,02,20,04,09,2.80
2014,02,20,04,10,2.80
2014,02,20,04,11,2.80
2014,02,20,04,12,2.80
2014,02,20,04,13,2.80
2014,02,20,04,14,2.80
2014,02,20,04,15,2.80
2014,02,20,04,16,2.80
2014,02,20,04,17,2.80
2014,02,20,04,18,2.80
2014,02,20,04,19,2.80
2014,02,20,04,20,2.80
2014,02,20,04,21,2.80
2014,02,20,04,22,2.80
2014,02,20,04,23,2.80
2014,02,20,04,24,2.80
2014,02,20,04,25,2.90
2014,02,20,04,26,2.90
2014,02,20,04,27,2.90
2014,02,20,04,28,2.90
2014,02,20,04,29,2.90
2014,02,20,04,30,2.90
2014,02,20,04,31,2.90
2014,02,20,04,32,2.90
2014,02,20,04,33,2.90
2014,02,20,04,34,2.90
2014,02,20,04,35,3.00
2014,02,20,04,36,3.00
2014,02,20,04,37,3.00
2014,02,20,04,38,3.00
2014,02,20,04,39,3.00
2014,02,20,04,40,3.00
2014,02,20,04,41,3.00
2014,02,20,04,42,3.00
2014,02,20,04,43,3.00
2014,02,20,04,44,3.00
2014,02,20,04,45,3.00
2014,02,20,04,46,3.00
2014,02,20,04,47,3.00
2014,02,20,04,48,3.00
2014,02,20,04,49,3.00
2014,02,20,04,50,3.00
2014,02,20,04,51,3.00
2014,02,20,04,52,3.00
2014,02,20,04,53,3.00
2014,02,20,04,54,3.00
2014,02,20,04,55,3.00
2014,02,20,04,56,3.00
2014,02,20,04,57,3.00
2014,02,20,04,58,3.00
2014,02,20,04,59,3.00
2014,02,20,05,00,3.00
2014,02,20,05,01,3.10
2014,02,20,05,02,3.10
2014,02,20,05,03,3.10
2014,02,20,05,04,3.10
2014,02,20,05,05,3.10
2014,02,20,05,06,3.10
2014,02,20,05,07,3.20
2014,02,20,05,08,3.20
2014,02,20,05,09,3.20
2014,02,20,05,10,3.20
2014,02,20,05,11,3.20
2014,02,20,05,12,3.20
2014,02,20,05,13,3.20
2014,02,20,05,14,3.20
2014,02,20,05,15,3.20
2014,02,20,05,16,3.20
2014,02,20,05,17,3.10
2014,02,20,05,18,3.10
2014,02,20,05,19,3.10
2014,02,20,05,20,3.10
2014,02,20,05,21,3.10
2014,02,20,05,22,3.10
2014,02,20,05,23,3.10
2014,02,20,05,24,3.10
2014,02,20,05,25,3.10
2014,02,20,05,26,3.10
2014,02,20,05,27,3.10
2014,02,20,05,28,3.10
2014,02,20,05,29,3.00
2014,02,20,05,30,3.00
2014,02,20,05,31,3.00
2014,02,20,05,32,3.10
2014,02,20,05,33,3.10
2014,02,20,05,34,3.10
2014,02,20,05,35,3.10
2014,02,20,05,36,3.10
2014,02,20,05,37,3.10
2014,02,20,05,38,3.10
2014,02,20,05,39,3.20
2014,02,20,05,40,3.20
2014,02,20,05,41,3.20
2014,02,20,05,42,3.20
2014,02,20,05,43,3.20
2014,02,20,05,44,3.20
2014,02,20,05,45,3.20
2014,02,20,05,46,3.20
2014,02,20,05,47,3.20
2014,02,20,05,48,3.20
2014,02,20,05,49,3.20
2014,02,20,05,50,3.20
2014,02,20,05,51,3.20
2014,02,20,05,52,3.20
2014,02,20,05,53,3.20
2014,02,20,05,54,3.20
2014,02,20,05,55,3.20
2014,02,20,05,56,3.20
2014,02,20,05,57,3.30
2014,02,20,05,58,3.30
2014,02,20,05,59,3.30
2014,02,20,06,00,3.30
2014,02,20,06,01,3.40
2014,02,20,06,02,3.40
2014,02,20,06,03,3.40
2014,02,20,06,04,3.40
2014,02,20,06,05,3.40
2014,02,20,06,06,3.40
2014,02,20,06,07,3.40
2014,02,20,06,08,3.40
2014,02,20,06,09,3.50
2014,02,20,06,10,3.50
2014,02,20,06,11,3.50
2014,02,20,06,12,3.50
2014,02,20,06,13,3.50
2014,02,20,06,14,3.50
2014,02,20,06,15,3.50
2014,02,20,06,16,3.50
2014,02,20,06,17,3.50
2014,02,20,06,18,3.50
2014,02,20,06,19,3.60
2014,02,20,06,20,3.70
2014,02,20,06,21,3.70
2014,02,20,06,22,3.70
2014,02,20,06,23,3.80
2014,02,20,06,24,3.80
2014,02,20,06,25,3.70
2014,02,20,06,26,3.70
2014,02,20,06,27,3.70
2014,02,20,06,28,3.70
2014,02,20,06,29,3.70
2014,02,20,06,30,3.70
2014,02,20,06,31,3.80
2014,02,20,06,32,3.80
2014,02,20,06,33,4.00
2014,02,20,06,34,4.00
2014,02,20,06,35,4.10
2014,02,20,06,36,4.20
2014,02,20,06,37,4.30
2014,02,20,06,38,4.40
2014,02,20,06,39,4.60
2014,02,20,06,40,4.70
2014,02,20,06,41,4.80
2014,02,20,06,42,4.90
2014,02,20,06,43,5.10
2014,02,20,06,44,5.30
2014,02,20,06,45,5.40
2014,02,20,06,46,5.50
2014,02,20,06,47,5.60
2014,02,20,06,48,5.70
2014,02,20,06,49,5.80
2014,02,20,06,50,5.90
2014,02,20,06,51,6.00
2014,02,20,06,52,6.10
2014,02,20,06,53,6.10
2014,02,20,06,54,6.20
2014,02,20,06,55,6.20
2014,02,20,06,56,6.20
2014,02,20,06,57,6.20
2014,02,20,06,58,6.20
2014,02,20,06,59,6.20
2014,02,20,07,00,6.20
2014,02,20,07,01,6.20
2014,02,20,07,02,6.20
2014,02,20,07,03,6.20
2014,02,20,07,04,6.20
2014,02,20,07,05,6.20
2014,02,20,07,06,6.20
2014,02,20,07,07,6.10
2014,02,20,07,08,6.10
2014,02,20,07,09,6.10
2014,02,20,07,10,6.10
2014,02,20,07,11,6.10
2014,02,20,07,12,6.10
2014,02,20,07,13,6.10
2014,02,20,07,14,6.10
2014,02,20,07,15,6.10
2014,02,20,07,16,6.10
2014,02,20,07,17,6.10
2014,02,20,09,53,7.40
2014,02,20,09,54,7.50
2014,02,20,09,55,7.60
2014,02,20,09,56,7.60
2014,02,20,09,57,7.70
2014,02,20,09,58,7.80
2014,02,20,09,59,7.90
2014,02,20,10,00,7.90
2014,02,20,10,01,8.00
2014,02,20,10,02,8.10
2014,02,20,10,03,8.10
2014,02,20,10,04,8.20
2014,02,20,10,05,8.20
2014,02,20,10,06,8.20
2014,02,20,10,07,8.30
2014,02,20,10,08,8.30
2014,02,20,10,09,8.30
2014,02,20,10,10,8.40
2014,02,20,10,11,8.40
2014,02,20,10,12,8.40
2014,02,20,10,13,8.40
2014,02,20,10,14,8.50
2014,02,20,10,15,8.50
2014,02,20,10,16,8.60
2014,02,20,10,17,8.60
2014,02,20,10,18,8.60
2014,02,20,10,19,8.60
2014,02,20,10,20,8.60
2014,02,20,10,21,8.60
2014,02,20,10,22,8.60
2014,02,20,10,23,8.60
2014,02,20,10,24,8.60
2014,02,20,10,25,8.60
2014,02,20,10,26,8.70
2014,02,20,10,27,8.70
2014,02,20,10,28,8.70
2014,02,20,10,29,8.70
2014,02,20,10,30,8.70
2014,02,20,10,31,8.70
2014,02,20,10,32,8.80
2014,02,20,10,33,8.80
2014,02,20,10,34,8.80
2014,02,20,10,35,8.80
2014,02,20,10,36,8.80
2014,02,20,10,37,8.80
2014,02,20,10,38,8.90
2014,02,20,10,39,8.90
2014,02,20,10,40,8.90
2014,02,20,10,41,8.90
2014,02,20,10,42,9.00
2014,02,20,10,43,9.00
2014,02,20,10,44,9.00
2014,02,20,10,45,9.00
2014,02,20,10,46,9.10
2014,02,20,10,47,9.10
2014,02,20,10,48,9.10
2014,02,20,10,49,9.10
2014,02,20,10,50,9.20
2014,02,20,10,51,9.20
2014,02,20,10,52,9.20
2014,02,20,10,53,9.20
2014,02,20,10,54,9.20
2014,02,20,10,55,9.20
2014,02,20,10,56,9.20
2014,02,20,10,57,9.20
2014,02,20,10,58,9.20
2014,02,20,10,59,9.20
2014,02,20,11,00,9.30
2014,02,20,11,01,9.30
2014,02,20,11,02,9.30
2014,02,20,11,03,9.40
2014,02,20,11,04,9.50
2014,02,20,11,05,9.50
2014,02,20,11,06,9.60
2014,02,20,11,07,9.60
2014,02,20,11,08,9.60
2014,02,20,11,09,9.60
2014,02,20,11,10,9.60
2014,02,20,11,11,9.60
2014,02,20,11,12,9.60
2014,02,20,11,13,9.60
2014,02,20,11,14,9.60
2014,02,20,11,15,9.60
2014,02,20,11,16,9.60
2014,02,20,11,17,9.70
2014,02,20,11,18,9.70
2014,02,20,11,19,9.70
2014,02,20,11,20,9.60
2014,02,20,11,21,9.60
2014,02,20,11,22,9.60
2014,02,20,11,23,9.60
2014,02,20,11,24,9.60
2014,02,20,11,25,9.60
2014,02,20,11,26,9.60
2014,02,20,11,27,9.60
2014,02,20,11,28,9.60
2014,02,20,11,29,9.60
2014,02,20,11,30,9.60
2014,02,20,11,31,9.60
2014,02,20,11,32,9.70
2014,02,20,11,33,9.70
2014,02,20,11,34,9.70
2014,02,20,11,35,9.70
2014,02,20,11,36,9.70
2014,02,20,11,37,9.70
2014,02,20,11,38,9.70
2014,02,20,11,39,9.80
2014,02,20,11,40,9.80
2014,02,20,11,41,9.80
2014,02,20,11,42,9.80
2014,02,20,11,43,9.80
2014,02,20,11,44,9.80
2014,02,20,11,45,9.80
2014,02,20,11,46,9.80
2014,02,20,11,47,9.70
2014,02,20,11,48,9.70
2014,02,20,11,49,9.70
2014,02,20,11,50,9.70
2014,02,20,11,51,9.70
2014,02,20,11,52,9.80
2014,02,20,11,53,9.80
2014,02,20,11,54,9.90
2014,02,20,11,55,9.90
2014,02,20,11,56,10.00
2014,02,20,11,57,10.00
2014,02,20,11,58,10.10
2014,02,20,11,59,10.20
2014,02,20,12,00,10.20
2014,02,20,12,01,10.30
2014,02,20,12,02,10.30
2014,02,20,12,03,10.30
2014,02,20,12,04,10.30
2014,02,20,12,05,10.30
2014,02,20,12,06,10.40
2014,02,20,12,07,10.50
2014,02,20,12,08,10.50
2014,02,20,12,09,10.50
2014,02,20,12,10,10.60
2014,02,20,12,11,10.60
2014,02,20,12,12,10.60
2014,02,20,12,13,10.60
2014,02,20,12,14,10.70
2014,02,20,12,15,10.70
2014,02,20,12,16,10.60
2014,02,20,12,17,10.60
2014,02,20,12,18,10.60
2014,02,20,12,19,10.50
2014,02,20,12,20,10.50
2014,02,20,12,21,10.50
2014,02,20,12,22,10.50
2014,02,20,12,23,10.50
2014,02,20,12,24,10.50
2014,02,20,12,25,10.50
2014,02,20,12,26,10.50
2014,02,20,12,27,10.50
2014,02,20,12,28,10.50
2014,02,20,12,29,10.40
2014,02,20,12,30,10.40
2014,02,20,12,31,10.50
2014,02,20,12,32,10.50
2014,02,20,12,33,10.50
2014,02,20,12,34,10.50
2014,02,20,12,35,10.50
2014,02,20,12,36,10.50
2014,02,20,12,37,10.60
2014,02,20,12,38,10.60
2014,02,20,12,39,10.60
2014,02,20,12,40,10.60
2014,02,20,12,41,10.70
2014,02,20,12,42,10.70
2014,02,20,12,43,10.70
2014,02,20,12,44,10.70
2014,02,20,12,45,10.70
2014,02,20,12,46,10.60
2014,02,20,12,47,10.60
2014,02,20,12,48,10.60
2014,02,20,12,49,10.60
2014,02,20,12,50,10.60
2014,02,20,12,51,10.60
2014,02,20,12,52,10.60
2014,02,20,12,53,10.60
2014,02,20,12,54,10.60
2014,02,20,12,55,10.60
2014,02,20,12,56,10.60
2014,02,20,12,57,10.60
2014,02,20,12,58,10.60
2014,02,20,12,59,10.60
2014,02,20,13,00,10.60
2014,02,20,13,01,10.60
2014,02,20,13,02,10.60
2014,02,20,13,03,10.50
2014,02,20,13,04,10.50
2014,02,20,13,05,10.60
2014,02,20,13,06,10.60
2014,02,20,13,07,10.60
2014,02,20,13,08,10.60
2014,02,20,13,09,10.60
2014,02,20,13,10,10.70
2014,02,20,13,11,10.70
2014,02,20,13,12,10.80
2014,02,20,13,13,10.80
2014,02,20,13,14,10.90
2014,02,20,13,15,11.00
2014,02,20,13,16,11.00
2014,02,20,13,17,11.00
2014,02,20,13,18,10.90
2014,02,20,13,19,10.90
2014,02,20,13,20,10.90
2014,02,20,13,21,10.80
2014,02,20,13,22,10.80
2014,02,20,13,23,10.80
2014,02,20,13,24,10.80
2014,02,20,13,25,10.70
2014,02,20,13,26,10.70
2014,02,20,13,27,10.70
2014,02,20,13,28,10.70
2014,02,20,13,29,10.70
2014,02,20,13,30,10.70
2014,02,20,13,31,10.70
2014,02,20,13,32,10.60
2014,02,20,13,33,10.60
2014,02,20,13,34,10.50
2014,02,20,13,35,10.40
2014,02,20,13,36,10.40
2014,02,20,13,37,10.40
2014,02,20,13,38,10.40
2014,02,20,13,39,10.40
2014,02,20,13,40,10.40
2014,02,20,13,41,10.50
2014,02,20,13,42,10.50
2014,02,20,13,43,10.40
2014,02,20,13,44,10.40
2014,02,20,13,45,10.30
2014,02,20,13,46,10.30
2014,02,20,13,47,10.30
2014,02,20,13,48,10.30
2014,02,20,13,49,10.30
2014,02,20,13,50,10.40
2014,02,20,13,51,10.40
2014,02,20,13,52,10.40
2014,02,20,13,53,10.50
2014,02,20,13,54,10.50
2014,02,20,13,55,10.50
2014,02,20,13,56,10.50
2014,02,20,13,57,10.50
2014,02,20,13,58,10.50
2014,02,20,13,59,10.50
2014,02,20,14,00,10.50
2014,02,20,14,01,10.60
2014,02,20,14,02,10.50
2014,02,20,14,03,10.40
2014,02,20,14,04,10.40
2014,02,20,14,05,10.30
2014,02,20,14,06,10.20
2014,02,20,14,07,10.20
2014,02,20,14,08,10.20
2014,02,20,14,09,10.20
2014,02,20,14,10,10.20
2014,02,20,14,11,10.20
2014,02,20,14,12,10.10
2014,02,20,14,13,10.10
2014,02,20,14,14,10.00
2014,02,20,14,15,10.00
2014,02,20,14,16,9.90
2014,02,20,14,17,9.90
2014,02,20,14,18,9.90
2014,02,20,14,19,9.90
2014,02,20,14,20,9.90
2014,02,20,14,21,9.90
2014,02,20,14,22,9.90
2014,02,20,14,23,9.90
2014,02,20,14,24,9.90
2014,02,20,14,25,9.80
2014,02,20,14,26,9.80
2014,02,20,14,27,9.80
2014,02,20,14,28,9.80
2014,02,20,14,29,9.80
2014,02,20,14,30,9.80
2014,02,20,14,31,9.70
2014,02,20,14,32,9.60
2014,02,20,14,33,9.60
2014,02,20,14,34,9.60
2014,02,20,14,35,9.60
2014,02,20,14,36,9.60
2014,02,20,14,37,9.60
2014,02,20,14,38,9.60
2014,02,20,14,39,9.60
2014,02,20,14,40,9.50
2014,02,20,14,41,9.50
2014,02,20,14,42,9.40
2014,02,20,14,43,9.40
2014,02,20,14,44,9.40
2014,02,20,14,45,9.40
2014,02,20,14,46,9.40
2014,02,20,14,47,9.40
2014,02,20,14,48,9.40
2014,02,20,14,49,9.40
2014,02,20,14,50,9.40
2014,02,20,14,51,9.40
2014,02,20,14,52,9.40
2014,02,20,14,53,9.50
2014,02,20,14,54,9.60
2014,02,20,14,55,9.60
2014,02,20,14,56,9.60
2014,02,20,14,57,9.60
2014,02,20,14,58,9.60
2014,02,20,14,59,9.50
2014,02,20,15,00,9.50
2014,02,20,15,01,9.40
2014,02,20,15,02,9.30
2014,02,20,15,03,9.40
2014,02,20,15,04,9.40
2014,02,20,15,05,9.40
2014,02,20,15,06,9.40
2014,02,20,15,07,9.40
2014,02,20,15,08,9.40
2014,02,20,15,09,9.40
2014,02,20,15,10,9.50
2014,02,20,15,11,9.50
2014,02,20,15,12,9.60
2014,02,20,15,13,9.70
2014,02,20,15,14,9.70
2014,02,20,15,15,9.70
2014,02,20,15,16,9.70
2014,02,20,15,17,9.60
2014,02,20,15,18,9.60
2014,02,20,15,19,9.60
2014,02,20,15,20,9.60
2014,02,20,15,21,9.70
2014,02,20,15,22,9.70
2014,02,20,15,23,9.70
2014,02,20,15,24,9.70
2014,02,20,15,25,9.70
2014,02,20,15,26,9.70
2014,02,20,15,27,9.70
2014,02,20,15,28,9.70
2014,02,20,15,29,9.70
2014,02,20,15,30,9.70
2014,02,20,15,31,9.70
2014,02,20,15,32,9.70
2014,02,20,15,33,9.70
2014,02,20,15,34,9.70
2014,02,20,15,35,9.70
2014,02,20,15,36,9.70
2014,02,20,15,37,9.70
2014,02,20,15,38,9.70
2014,02,20,15,39,9.70
2014,02,20,15,40,9.70
2014,02,20,15,41,9.70
2014,02,20,15,42,9.70
2014,02,20,15,43,9.70
2014,02,20,15,44,9.60
2014,02,20,15,45,9.60
2014,02,20,15,46,9.50
2014,02,20,15,47,9.50
2014,02,20,15,48,9.50
2014,02,20,15,49,9.40
2014,02,20,15,50,9.40
2014,02,20,15,51,9.30
2014,02,20,15,52,9.30
2014,02,20,15,53,9.30
2014,02,20,15,54,9.30
2014,02,20,15,55,9.30
2014,02,20,15,56,9.30
2014,02,20,15,57,9.20
2014,02,20,15,58,9.20
2014,02,20,15,59,9.20
2014,02,20,16,00,9.20
2014,02,20,16,01,9.10
2014,02,20,16,02,9.10
2014,02,20,16,03,9.10
2014,02,20,16,04,9.00
2014,02,20,16,05,8.90
2014,02,20,16,06,8.80
2014,02,20,16,07,8.70
2014,02,20,16,08,8.60
2014,02,20,16,09,8.50
2014,02,20,16,10,8.40
2014,02,20,16,11,8.30
2014,02,20,16,12,8.30
2014,02,20,16,13,8.20
2014,02,20,16,14,8.20
2014,02,20,16,15,8.20
2014,02,20,16,16,8.10
2014,02,20,16,17,8.10
2014,02,20,16,18,8.00
2014,02,20,16,19,8.00
2014,02,20,16,20,8.00
2014,02,20,16,21,7.90
2014,02,20,16,22,7.90
2014,02,20,16,23,7.90
2014,02,20,16,24,7.90
2014,02,20,16,25,7.90
2014,02,20,16,26,7.90
2014,02,20,16,27,7.90
2014,02,20,16,28,7.90
2014,02,20,16,29,7.90
2014,02,20,16,30,7.90
2014,02,20,16,31,7.90
2014,02,20,16,32,7.80
2014,02,20,16,33,7.80
2014,02,20,16,34,7.80
2014,02,20,16,35,7.80
2014,02,20,16,36,7.80
2014,02,20,16,37,7.80
2014,02,20,16,38,7.70
2014,02,20,16,39,7.70
2014,02,20,16,40,7.70
2014,02,20,16,41,7.70
2014,02,20,16,42,7.70
2014,02,20,16,43,7.80
2014,02,20,16,44,7.80
2014,02,20,16,45,7.80
2014,02,20,16,46,7.80
2014,02,20,16,47,7.80
2014,02,20,16,48,7.80
2014,02,20,16,49,7.90
2014,02,20,16,50,7.90
2014,02,20,16,51,7.90
2014,02,20,16,52,8.00
2014,02,20,16,53,8.00
2014,02,20,16,54,8.00
2014,02,20,16,55,7.90
2014,02,20,16,56,7.90
2014,02,20,16,57,7.90
2014,02,20,16,58,7.90
2014,02,20,16,59,7.90
2014,02,20,17,00,7.80
2014,02,20,17,01,7.80
2014,02,20,17,02,7.80
2014,02,20,17,03,7.80
2014,02,20,17,04,7.70
2014,02,20,17,05,7.70
2014,02,20,17,06,7.70
2014,02,20,17,07,7.70
2014,02,20,17,08,7.60
2014,02,20,17,09,7.60
2014,02,20,17,10,7.60
2014,02,20,17,11,7.50
2014,02,20,17,12,7.50
2014,02,20,17,13,7.50
2014,02,20,17,14,7.60
2014,02,20,17,15,7.60
2014,02,20,17,16,7.60
2014,02,20,17,17,7.60
2014,02,20,17,18,7.50
2014,02,20,17,19,7.50
2014,02,20,17,20,7.60
2014,02,20,17,21,7.60
2014,02,20,17,22,7.60
2014,02,20,17,23,7.60
2014,02,20,17,24,7.60
2014,02,20,17,25,7.60
2014,02,20,17,26,7.60
2014,02,20,17,27,7.70
2014,02,20,17,28,7.70
2014,02,20,17,29,7.70
2014,02,20,17,30,7.70
2014,02,20,17,31,7.70
2014,02,20,17,32,7.70
2014,02,20,17,33,7.70
2014,02,20,17,34,7.70
2014,02,20,17,35,7.70
2014,02,20,17,36,7.70
2014,02,20,17,37,7.70
2014,02,20,17,38,7.70
2014,02,20,17,39,7.70
2014,02,20,17,40,7.70
2014,02,20,17,41,7.70
2014,02,20,17,42,7.70
2014,02,20,17,43,7.70
2014,02,20,17,44,7.70
2014,02,20,17,45,7.70
2014,02,20,17,46,7.70
2014,02,20,17,47,7.70
2014,02,20,17,48,7.70
2014,02,20,17,49,7.70
2014,02,20,17,50,7.70
2014,02,20,17,51,7.70
2014,02,20,17,52,7.70
2014,02,20,17,53,7.70
2014,02,20,17,54,7.70
2014,02,20,17,55,7.60
2014,02,20,17,56,7.60
2014,02,20,17,57,7.60
2014,02,20,17,58,7.60
2014,02,20,17,59,7.60
2014,02,20,18,00,7.60
2014,02,20,18,01,7.50
2014,02,20,18,02,7.50
2014,02,20,18,03,7.50
2014,02,20,18,04,7.50
2014,02,20,18,05,7.50
2014,02,20,18,06,7.50
2014,02,20,18,07,7.40
2014,02,20,18,08,7.40
2014,02,20,18,09,7.40
2014,02,20,18,10,7.40
2014,02,20,18,11,7.40
2014,02,20,18,12,7.40
2014,02,20,18,13,7.40
2014,02,20,18,14,7.40
2014,02,20,18,15,7.40
2014,02,20,18,16,7.30
2014,02,20,18,17,7.30
2014,02,20,18,18,7.30
2014,02,20,18,19,7.20
2014,02,20,18,20,7.20
2014,02,20,18,21,7.20
2014,02,20,18,22,7.20
2014,02,20,18,23,7.20
2014,02,20,18,24,7.20
2014,02,20,18,25,7.20
2014,02,20,18,26,7.20
2014,02,20,18,27,7.20
2014,02,20,18,28,7.20
2014,02,20,18,29,7.20
2014,02,20,18,30,7.20
2014,02,20,18,31,7.20
2014,02,20,18,32,7.20
2014,02,20,18,33,7.20
2014,02,20,18,34,7.20
2014,02,20,18,35,7.20
2014,02,20,18,36,7.20
2014,02,20,18,37,7.20
2014,02,20,18,38,7.20
2014,02,20,18,39,7.20
2014,02,20,18,40,7.20
2014,02,20,18,41,7.20
2014,02,20,18,42,7.10
2014,02,20,18,43,7.10
2014,02,20,18,44,7.00
2014,02,20,18,45,7.00
2014,02,20,18,46,7.00
2014,02,20,18,47,6.90
2014,02,20,18,48,6.90
2014,02,20,18,49,6.90
2014,02,20,18,50,6.80
2014,02,20,18,51,6.80
2014,02,20,18,52,6.80
2014,02,20,18,53,6.80
2014,02,20,18,54,6.80
2014,02,20,18,55,6.70
2014,02,20,18,56,6.70
2014,02,20,18,57,6.70
2014,02,20,18,58,6.70
2014,02,20,18,59,6.70
2014,02,20,19,00,6.70
2014,02,20,19,01,6.80
2014,02,20,19,02,6.80
2014,02,20,19,03,6.80
2014,02,20,19,04,6.80
2014,02,20,19,05,6.80
2014,02,20,19,06,6.80
2014,02,20,19,07,6.80
2014,02,20,19,08,6.80
2014,02,20,19,09,6.80
2014,02,20,19,10,6.90
2014,02,20,19,11,6.90
2014,02,20,19,12,6.90
2014,02,20,19,13,6.90
2014,02,20,19,14,6.90
2014,02,20,19,15,6.90
2014,02,20,19,16,6.90
2014,02,20,19,17,6.90
2014,02,20,19,18,6.90
2014,02,20,19,19,6.90
2014,02,20,19,20,6.90
2014,02,20,19,21,6.90
2014,02,20,19,22,6.80
2014,02,20,19,23,6.90
2014,02,20,19,24,6.90
2014,02,20,19,25,6.90
2014,02,20,19,26,6.80
2014,02,20,19,27,6.80
2014,02,20,19,28,6.80
2014,02,20,19,29,6.80
2014,02,20,19,30,6.80
2014,02,20,19,31,6.80
2014,02,20,19,32,6.80
2014,02,20,19,33,6.80
2014,02,20,19,34,6.80
2014,02,20,19,35,6.80
2014,02,20,19,36,6.80
2014,02,20,19,37,6.80
2014,02,20,19,38,6.80
2014,02,20,19,39,6.80
2014,02,20,19,40,6.80
2014,02,20,19,41,6.80
2014,02,20,19,42,6.80
2014,02,20,19,43,6.70
2014,02,20,19,44,6.70
2014,02,20,19,45,6.70
2014,02,20,19,46,6.70
2014,02,20,19,47,6.70
2014,02,20,19,48,6.70
2014,02,20,19,49,6.70
2014,02,20,19,50,6.70
2014,02,20,19,51,6.70
2014,02,20,19,52,6.70
2014,02,20,19,53,6.70
2014,02,20,19,54,6.70
2014,02,20,19,55,6.70
2014,02,20,19,56,6.70
2014,02,20,19,57,6.70
2014,02,20,19,58,6.70
2014,02,20,19,59,6.70
2014,02,20,20,00,6.70
2014,02,20,20,01,6.70
2014,02,20,20,02,6.80
2014,02,20,20,03,6.80
2014,02,20,20,04,6.80
2014,02,20,20,05,6.80
2014,02,20,20,06,6.80
2014,02,20,20,07,6.90
2014,02,20,20,08,6.90
2014,02,20,20,09,7.00
2014,02,20,20,10,7.00
2014,02,20,20,11,7.10
2014,02,20,20,12,7.10
2014,02,20,20,13,7.10
2014,02,20,20,14,7.10
2014,02,20,20,15,7.20
2014,02,20,20,16,7.20
2014,02,20,20,17,7.20
2014,02,20,20,18,7.20
2014,02,20,20,19,7.20
2014,02,20,20,20,7.20
2014,02,20,20,21,7.20
2014,02,20,20,22,7.20
2014,02,20,20,23,7.20
2014,02,20,20,24,7.20
2014,02,20,20,25,7.10
2014,02,20,20,26,7.10
2014,02,20,20,27,7.10
2014,02,20,20,28,7.10
2014,02,20,20,29,7.00
2014,02,20,20,30,7.00
2014,02,20,20,31,6.90
2014,02,20,20,32,6.90
2014,02,20,20,33,6.90
2014,02,20,20,34,6.80
2014,02,20,20,35,6.80